Moore, Oklahoma, United States
Lat: 35.34N, Lon: 97.49W
Wx Zone: OKZ029
Local Info
Past Weather Observations for Wednesday, December 17, 2014

NOTE: This archive is for the closest National Weather Service station to Moore. Information may differ from the station used for current weather conditions.

Click here for Long-term Archive

Time Weather Temperature Dewpoint Humidity Pressure Winds Precip Visibility
23:52
Overcast
Drizzle
39°F / 4°C 36°F / 2°C 87% 30.12 in
(1020 mb)
S 10.4 mph
(S 17 kph)
0.00 in
(0.00 mm)
2SM
23:31
Overcast
Drizzle
37°F / 3°C 36°F / 2°C 93% 30.12 in
(1020 mb)
S 8.1 mph
(S 13 kph)
0.00 in
(0.00 mm)
1 3/4SM
23:21
Overcast
Drizzle
37°F / 3°C 36°F / 2°C 93% 30.12 in
(1020 mb)
S 8.1 mph
(S 13 kph)
0.00 in
(0.00 mm)
2SM
22:52
Overcast
Fog And Mist
37°F / 3°C 36°F / 2°C 93% 30.15 in
(1021 mb)
SSE 9.2 mph
(SSE 15 kph)
0.01 in
(0.25 mm)
3SM
21:52
Overcast
Drizzle
37°F / 3°C 36°F / 2°C 93% 30.12 in
(1020 mb)
SE 11.5 mph
(SE 19 kph)
0.01 in
(0.25 mm)
3SM
21:16
Overcast
Light Rain
37°F / 3°C 36°F / 2°C 93% 30.15 in
(1021 mb)
SE 6.9 mph
(SE 11 kph)
0.00 in
(0.00 mm)
2 1/2SM
20:52
Overcast
Fog And Mist
37°F / 3°C 36°F / 2°C 93% 30.15 in
(1021 mb)
SE 6.9 mph
(SE 11 kph)
- 3SM
19:52
Overcast
Fog And Mist
37°F / 3°C 36°F / 2°C 93% 30.12 in
(1020 mb)
SE 8.1 mph
(SE 13 kph)
0.00 in
(0.00 mm)
3SM
19:29
Overcast
Fog And Mist
37°F / 3°C 36°F / 2°C 93% 30.12 in
(1020 mb)
SE 10.4 mph
(SE 17 kph)
0.00 in
(0.00 mm)
3SM
18:57
Overcast
Drizzle
37°F / 3°C 36°F / 2°C 93% 30.12 in
(1020 mb)
SE 8.1 mph
(SE 13 kph)
0.00 in
(0.00 mm)
2 1/2SM
18:52
Overcast
Drizzle
37°F / 3°C 36°F / 2°C 93% 30.12 in
(1020 mb)
SE 9.2 mph
(SE 15 kph)
0.00 in
(0.00 mm)
3SM
17:52
Overcast
Light Rain
37°F / 3°C 36°F / 2°C 93% 30.12 in
(1020 mb)
SE 9.2 mph
(SE 15 kph)
0.01 in
(0.25 mm)
3SM
16:52
Overcast
Light Rain
37°F / 3°C 36°F / 2°C 93% 30.12 in
(1020 mb)
SE 6.9 mph
(SE 11 kph)
0.05 in
(1.27 mm)
3SM
16:34
Overcast
Light Rain
37°F / 3°C 36°F / 2°C 93% 30.12 in
(1020 mb)
SE 6.9 mph
(SE 11 kph)
0.04 in
(1.02 mm)
3SM
16:22
Overcast
Rain
37°F / 3°C 36°F / 2°C 93% 30.12 in
(1020 mb)
ESE 6.9 mph
(ESE 11 kph)
0.04 in
(1.02 mm)
1 1/2SM
15:52
Overcast
Light Rain
37°F / 3°C 34°F / 1°C 87% 30.12 in
(1020 mb)
E 6.9 mph
(E 11 kph)
0.08 in
(2.03 mm)
2SM
15:34
Overcast
Light Rain
37°F / 3°C 34°F / 1°C 87% 30.12 in
(1020 mb)
ESE 5.8 mph
(ESE 9 kph)
0.05 in
(1.27 mm)
2 1/2SM
15:21
Overcast
Light Rain
37°F / 3°C 34°F / 1°C 87% 30.09 in
(1019 mb)
E 8.1 mph
(E 13 kph)
0.02 in
(0.51 mm)
2 1/2SM
14:52
Overcast
Light Rain
37°F / 3°C 34°F / 1°C 87% 30.09 in
(1019 mb)
ESE 6.9 mph
(ESE 11 kph)
0.08 in
(2.03 mm)
2SM
14:39
Overcast
Light Rain
37°F / 3°C 34°F / 1°C 87% 30.12 in
(1020 mb)
SE 5.8 mph
(SE 9 kph)
0.07 in
(1.78 mm)
2SM
14:16
Overcast
Light Rain
37°F / 3°C 34°F / 1°C 87% 30.12 in
(1020 mb)
SE 5.8 mph
(SE 9 kph)
0.03 in
(0.76 mm)
5SM
13:52
Overcast
Light Rain
37°F / 3°C 34°F / 1°C 87% 30.12 in
(1020 mb)
SE 9.2 mph
(SE 15 kph)
0.02 in
(0.51 mm)
6SM
12:52
Overcast
Light Rain
39°F / 4°C 30°F / -1°C 70% 30.15 in
(1021 mb)
SSE 12.7 mph
(SSE 20 kph)
0.00 in
(0.00 mm)
10SM
11:52
Overcast
Light Rain
39°F / 4°C 30°F / -1°C 70% 30.21 in
(1023 mb)
SE 13.8 mph
(SE 22 kph)
0.00 in
(0.00 mm)
10SM
10:52
Overcast
37°F / 3°C 30°F / -1°C 75% 30.24 in
(1024 mb)
SE 11.5 mph
(SE 19 kph)
- 10SM
09:52
Overcast
37°F / 3°C 30°F / -1°C 75% 30.24 in
(1024 mb)
SE 12.7 mph
(SE 20 kph)
0.00 in
(0.00 mm)
10SM
08:52
Overcast
Light Rain
37°F / 3°C 30°F / -1°C 75% 30.24 in
(1024 mb)
E 13.8 mph
(E 22 kph)
0.01 in
(0.25 mm)
6SM
07:52
Overcast
Light Rain
37°F / 3°C 30°F / -1°C 75% 30.27 in
(1025 mb)
SE 9.2 mph
(SE 15 kph)
0.00 in
(0.00 mm)
6SM
06:52
Overcast
37°F / 3°C 30°F / -1°C 75% 30.24 in
(1024 mb)
SE 6.9 mph
(SE 11 kph)
0.00 in
(0.00 mm)
10SM
05:52
Overcast
Light Rain
37°F / 3°C 28°F / -2°C 70% 30.24 in
(1024 mb)
SE 8.1 mph
(SE 13 kph)
0.00 in
(0.00 mm)
10SM
04:52
Overcast
37°F / 3°C 28°F / -2°C 70% 30.24 in
(1024 mb)
SE 6.9 mph
(SE 11 kph)
- 10SM
03:52
Overcast
39°F / 4°C 28°F / -2°C 65% 30.27 in
(1025 mb)
SE 5.8 mph
(SE 9 kph)
- 10SM
02:52
Mostly Cloudy
37°F / 3°C 27°F / -3°C 65% 30.27 in
(1025 mb)
E 4.6 mph
(E 7 kph)
- 10SM
01:52
Mostly Cloudy
37°F / 3°C 25°F / -4°C 60% 30.27 in
(1025 mb)
ENE 4.6 mph
(ENE 7 kph)
- 10SM
00:52
Overcast
37°F / 3°C 25°F / -4°C 60% 30.27 in
(1025 mb)
E 3.5 mph
(E 6 kph)
- 10SM
Time Weather Temperature Dewpoint Humidity Pressure Winds Precip Visibility


Weather for websites

WeatherForYou.com, LLC is not responsible for any damages or problems caused by this service. Current weather conditions are obtained from the closest station including government and personal stations which may have varying degrees of accuracy. Weather forecasts are derived from the NOAA NDFD. Like all things, this site belongs to Jesus Christ... He just trusts me to maintain it. If you have any questions or comments email webmaster@weatherforyou.com

Copyright © 2014, WeatherForYou.com LLC. All rights reserved.